| time (UTC) | temp F | wind direction | speed knots | gust knots | rain 1hr in | rain 24hr in | rain mn in | humidity % | barometer mb |
| 20260510210903 | 45 | 52 | 1.7 | 2.6 | 0.00 | 0.16 | 0.16 | 98 | 1014.3 |
| 20260510210217 | 45 | 64 | 0.9 | 1.7 | 0.00 | 0.16 | 0.16 | 98 | 1014.2 |
| 20260510205403 | 45 | 70 | 0.0 | 1.7 | 0.00 | 0.16 | 0.16 | 97 | 1014.1 |
| 20260510203603 | 46 | 52 | 1.7 | 1.7 | 0.00 | 0.16 | 0.16 | 97 | 1014.1 |
| 20260510202917 | 45 | 53 | 1.7 | 2.6 | 0.00 | 0.16 | 0.16 | 96 | 1014.0 |
| 20260510201803 | 46 | 51 | 0.9 | 1.7 | 0.00 | 0.16 | 0.16 | 96 | 1013.9 |
| 20260510200903 | 47 | 51 | 0.0 | 0.9 | 0.00 | 0.16 | 0.16 | 95 | 1013.8 |
| 20260510200004 | 48 | 47 | 0.9 | 1.7 | 0.00 | 0.16 | 0.16 | 94 | 1013.6 |
| 20260510194503 | 48 | 57 | 0.9 | 1.7 | 0.00 | 0.16 | 0.16 | 93 | 1013.4 |
| 20260510193817 | 49 | 66 | 0.0 | 1.7 | 0.00 | 0.16 | 0.16 | 91 | 1013.4 |
| 20260510192703 | 50 | 56 | 0.0 | 0.9 | 0.00 | 0.16 | 0.16 | 89 | 1013.4 |
| 20260510191803 | 51 | 239 | 0.0 | 1.7 | 0.00 | 0.16 | 0.16 | 86 | 1013.2 |
| 20260510184717 | 52 | 251 | 2.6 | 5.2 | 0.02 | 0.16 | 0.16 | 80 | 1013.0 |
| 20260510183603 | 51 | 237 | 5.2 | 8.7 | 0.02 | 0.16 | 0.16 | 78 | 1013.0 |
| 20260510182703 | 50 | 240 | 2.6 | 7.0 | 0.02 | 0.16 | 0.16 | 82 | 1012.8 |
| 20260510181803 | 49 | 214 | 0.9 | 2.6 | 0.02 | 0.16 | 0.16 | 89 | 1012.7 |
| 20260510180218 | 48 | 238 | 8.7 | 16.5 | 0.03 | 0.16 | 0.15 | 91 | 1012.9 |
| 20260510175403 | 48 | 237 | 10.4 | 19.1 | 0.08 | 0.15 | 0.14 | 91 | 1013.3 |
| 20260510174503 | 50 | 233 | 5.2 | 9.6 | 0.08 | 0.15 | 0.14 | 84 | 1013.0 |
| 20260510173603 | 50 | 236 | 2.6 | 6.1 | 0.08 | 0.15 | 0.14 | 90 | 1012.8 |
| 20260510172703 | 50 | 242 | 3.5 | 6.1 | 0.08 | 0.15 | 0.14 | 91 | 1012.7 |
| 20260510170903 | 49 | 261 | 4.3 | 10.4 | 0.07 | 0.14 | 0.13 | 90 | 1012.8 |
| 20260510170218 | 50 | 248 | 7.8 | 14.8 | 0.06 | 0.13 | 0.13 | 88 | 1012.9 |
| 20260510165403 | 53 | 247 | 7.0 | 18.2 | 0.00 | 0.07 | 0.06 | 77 | 1012.4 |
| 20260510164503 | 56 | 255 | 6.1 | 12.2 | 0.00 | 0.07 | 0.06 | 72 | 1012.1 |
| 20260510163603 | 57 | 230 | 6.1 | 10.4 | 0.00 | 0.07 | 0.06 | 66 | 1012.1 |
| 20260510161803 | 57 | 221 | 7.0 | 13.9 | 0.00 | 0.07 | 0.06 | 65 | 1012.0 |
| 20260510161118 | 57 | 229 | 7.0 | 13.0 | 0.00 | 0.07 | 0.06 | 64 | 1011.5 |
| 20260510160003 | 56 | 236 | 8.7 | 20.0 | 0.00 | 0.07 | 0.06 | 64 | 1011.9 |
| 20260510155403 | 58 | 231 | 7.8 | 20.0 | 0.00 | 0.07 | 0.06 | 60 | 1011.8 |
| 20260510154718 | 58 | 221 | 7.0 | 15.6 | 0.00 | 0.07 | 0.06 | 66 | 1011.8 |
| 20260510153818 | 57 | 221 | 6.1 | 10.4 | 0.00 | 0.07 | 0.06 | 70 | 1011.7 |
| 20260510152917 | 57 | 213 | 6.1 | 9.6 | 0.00 | 0.07 | 0.06 | 69 | 1011.8 |
| 20260510151803 | 56 | 220 | 6.1 | 10.4 | 0.00 | 0.07 | 0.06 | 67 | 1012.0 |
| 20260510150903 | 57 | 220 | 6.1 | 13.9 | 0.00 | 0.07 | 0.06 | 68 | 1012.0 |
| 20260510150003 | 57 | 211 | 7.0 | 13.0 | 0.00 | 0.07 | 0.06 | 66 | 1012.1 |
| 20260510145617 | 56 | 212 | 7.8 | 13.0 | 0.00 | 0.07 | 0.06 | 66 | 1012.3 |
| 20260510142707 | 57 | 227 | 7.8 | 13.9 | 0.00 | 0.07 | 0.06 | 67 | 1012.4 |
| 20260510141804 | 56 | 213 | 7.8 | 14.8 | 0.00 | 0.08 | 0.06 | 71 | 1012.4 |
| 20260510140910 | 57 | 218 | 7.0 | 16.5 | 0.00 | 0.09 | 0.06 | 68 | 1012.6 |
| 20260510140003 | 55 | 215 | 7.8 | 14.8 | 0.00 | 0.12 | 0.06 | 70 | 1012.6 |
| 20260510135618 | 55 | 217 | 7.8 | 14.8 | 0.00 | 0.13 | 0.06 | 75 | 1012.6 |
| 20260510133603 | 53 | 208 | 7.0 | 13.0 | 0.00 | 0.13 | 0.06 | 78 | 1012.8 |
| 20260510132916 | 52 | 204 | 7.0 | 12.2 | 0.00 | 0.13 | 0.06 | 80 | 1013.0 |
| 20260510131803 | 52 | 199 | 4.3 | 10.4 | 0.00 | 0.13 | 0.06 | 82 | 1013.2 |
| 20260510131117 | 52 | 194 | 4.3 | 10.4 | 0.00 | 0.13 | 0.06 | 81 | 1013.0 |
| 20260510130005 | 53 | 194 | 5.2 | 7.8 | 0.00 | 0.13 | 0.06 | 83 | 1013.1 |
| 20260510124503 | 52 | 180 | 4.3 | 7.8 | 0.01 | 0.13 | 0.06 | 87 | 1013.0 |
| 20260510123603 | 51 | 204 | 4.3 | 7.8 | 0.01 | 0.13 | 0.06 | 88 | 1013.3 |
| 20260510122703 | 50 | 240 | 4.3 | 7.8 | 0.01 | 0.13 | 0.06 | 90 | 1013.5 |
| 20260510121811 | 49 | 243 | 4.3 | 7.8 | 0.02 | 0.13 | 0.06 | 92 | 1013.6 |
| 20260510120903 | 49 | 246 | 2.6 | 6.1 | 0.02 | 0.13 | 0.06 | 93 | 1013.6 |
| 20260510115403 | 48 | 251 | 4.3 | 9.6 | 0.02 | 0.12 | 0.05 | 93 | 1013.5 |
| 20260510114717 | 48 | 242 | 7.8 | 14.8 | 0.02 | 0.12 | 0.05 | 92 | 1013.7 |
| 20260510113603 | 48 | 243 | 9.6 | 15.6 | 0.02 | 0.12 | 0.05 | 93 | 1014.1 |
| 20260510112703 | 50 | 222 | 7.0 | 12.2 | 0.02 | 0.12 | 0.05 | 93 | 1013.8 |
| 20260510111803 | 50 | 215 | 7.0 | 10.4 | 0.01 | 0.11 | 0.04 | 92 | 1013.8 |
| 20260510110004 | 52 | 220 | 7.8 | 13.9 | 0.00 | 0.10 | 0.03 | 84 | 1013.7 |
| 20260510105403 | 53 | 222 | 8.7 | 15.6 | 0.00 | 0.10 | 0.03 | 80 | 1013.4 |
| 20260510104503 | 54 | 209 | 8.7 | 15.6 | 0.00 | 0.10 | 0.03 | 76 | 1013.2 |
| 20260510103603 | 54 | 204 | 7.0 | 12.2 | 0.00 | 0.10 | 0.03 | 78 | 1013.0 |
| 20260510102703 | 54 | 171 | 5.2 | 9.6 | 0.00 | 0.10 | 0.03 | 77 | 1012.7 |
| 20260510102019 | 54 | 189 | 5.2 | 9.6 | 0.00 | 0.10 | 0.03 | 78 | 1012.6 |
| 20260510100903 | 55 | 190 | 6.1 | 13.9 | 0.00 | 0.10 | 0.03 | 77 | 1012.3 |
| 20260510100004 | 56 | 190 | 6.1 | 12.2 | 0.00 | 0.10 | 0.03 | 74 | 1012.7 |
| 20260510095403 | 56 | 195 | 5.2 | 12.2 | 0.00 | 0.10 | 0.03 | 74 | 1012.6 |
| 20260510094503 | 56 | 185 | 4.3 | 9.6 | 0.00 | 0.10 | 0.03 | 75 | 1012.6 |
| 20260510092703 | 55 | 194 | 5.2 | 9.6 | 0.00 | 0.10 | 0.03 | 77 | 1012.9 |
| 20260510091803 | 54 | 196 | 6.1 | 10.4 | 0.00 | 0.10 | 0.03 | 78 | 1012.8 |
| 20260510090903 | 55 | 184 | 4.3 | 8.7 | 0.00 | 0.10 | 0.03 | 75 | 1012.5 |
| 20260510085403 | 54 | 192 | 6.1 | 10.4 | 0.00 | 0.10 | 0.03 | 76 | 1012.7 |
| 20260510083603 | 54 | 180 | 4.3 | 8.7 | 0.00 | 0.10 | 0.03 | 78 | 1012.8 |
| 20260510082703 | 54 | 204 | 5.2 | 7.8 | 0.00 | 0.10 | 0.03 | 80 | 1013.0 |
| 20260510081803 | 53 | 196 | 4.3 | 9.6 | 0.00 | 0.10 | 0.03 | 82 | 1013.0 |
| 20260510081118 | 52 | 202 | 2.6 | 7.0 | 0.00 | 0.10 | 0.03 | 86 | 1013.2 |
| 20260510075403 | 50 | 185 | 1.7 | 3.5 | 0.00 | 0.10 | 0.03 | 91 | 1013.3 |
| 20260510074717 | 50 | 188 | 2.6 | 6.1 | 0.01 | 0.10 | 0.03 | 92 | 1013.1 |
| 20260510073603 | 50 | 195 | 1.7 | 5.2 | 0.01 | 0.10 | 0.03 | 94 | 1013.2 |
| 20260510072703 | 49 | 214 | 2.6 | 5.2 | 0.01 | 0.10 | 0.03 | 94 | 1013.2 |
| 20260510071803 | 49 | 200 | 2.6 | 7.0 | 0.01 | 0.10 | 0.03 | 94 | 1013.1 |
| 20260510070903 | 49 | 195 | 3.5 | 7.0 | 0.01 | 0.10 | 0.03 | 94 | 1013.2 |
| 20260510064503 | 48 | 214 | 2.6 | 7.8 | 0.00 | 0.09 | 0.02 | 94 | 1013.1 |
| 20260510063603 | 48 | 215 | 2.6 | 5.2 | 0.00 | 0.09 | 0.02 | 94 | 1013.1 |
| 20260510062703 | 48 | 214 | 2.6 | 5.2 | 0.00 | 0.09 | 0.02 | 94 | 1012.9 |
| 20260510061803 | 48 | 203 | 2.6 | 6.1 | 0.00 | 0.09 | 0.02 | 94 | 1013.0 |
| 20260510055403 | 48 | 194 | 2.6 | 5.2 | 0.00 | 0.09 | 0.02 | 95 | 1012.9 |
| 20260510053603 | 47 | 198 | 2.6 | 5.2 | 0.00 | 0.09 | 0.02 | 96 | 1012.9 |
| 20260510052703 | 47 | 192 | 2.6 | 5.2 | 0.00 | 0.09 | 0.02 | 96 | 1012.9 |
| 20260510052018 | 47 | 194 | 2.6 | 5.2 | 0.00 | 0.09 | 0.02 | 96 | 1012.6 |
| 20260510051117 | 47 | 203 | 2.6 | 5.2 | 0.00 | 0.09 | 0.02 | 96 | 1012.8 |
| 20260510044503 | 47 | 212 | 2.6 | 5.2 | 0.00 | 0.09 | 0.02 | 97 | 1012.7 |
| 20260510042703 | 47 | 201 | 3.5 | 6.1 | 0.00 | 0.09 | 0.02 | 97 | 1012.9 |
| 20260510042018 | 47 | 204 | 2.6 | 6.1 | 0.00 | 0.09 | 0.02 | 97 | 1012.9 |
| 20260510040903 | 47 | 203 | 2.6 | 7.0 | 0.00 | 0.09 | 0.02 | 97 | 1012.6 |
| 20260510040003 | 47 | 198 | 2.6 | 7.0 | 0.00 | 0.09 | 0.02 | 97 | 1013.0 |
| 20260510035618 | 47 | 202 | 2.6 | 7.0 | 0.00 | 0.09 | 0.02 | 97 | 1013.0 |
| 20260510032703 | 46 | 191 | 1.7 | 2.6 | 0.00 | 0.09 | 0.02 | 98 | 1012.9 |
| 20260510032017 | 46 | 169 | 0.9 | 2.6 | 0.00 | 0.09 | 0.02 | 98 | 1013.0 |
| 20260510030903 | 47 | 202 | 2.6 | 3.5 | 0.00 | 0.09 | 0.02 | 98 | 1013.1 |
| 20260510030004 | 47 | 203 | 2.6 | 3.5 | 0.00 | 0.09 | 0.02 | 98 | 1012.7 |
| 20260510024503 | 47 | 184 | 1.7 | 5.2 | 0.00 | 0.09 | 0.02 | 98 | 1013.0 |
| 20260510023818 | 47 | 196 | 1.7 | 5.2 | 0.00 | 0.09 | 0.02 | 98 | 1013.0 |
| 20260510022703 | 47 | 197 | 1.7 | 3.5 | 0.00 | 0.09 | 0.02 | 98 | 1013.1 |
| 20260510021803 | 48 | 203 | 0.9 | 2.6 | 0.00 | 0.09 | 0.02 | 98 | 1013.1 |
| 20260510020903 | 48 | 213 | 1.7 | 2.6 | 0.00 | 0.09 | 0.02 | 97 | 1013.0 |
| 20260510015403 | 48 | 194 | 2.6 | 3.5 | 0.00 | 0.09 | 0.02 | 97 | 1013.1 |
| 20260510014718 | 48 | 192 | 1.7 | 5.2 | 0.00 | 0.09 | 0.02 | 97 | 1013.0 |
| 20260510013603 | 49 | 200 | 2.6 | 7.0 | 0.00 | 0.09 | 0.02 | 97 | 1012.8 |
| 20260510012703 | 49 | 197 | 1.7 | 5.2 | 0.00 | 0.09 | 0.02 | 97 | 1012.9 |
| 20260510011803 | 49 | 203 | 2.6 | 5.2 | 0.00 | 0.09 | 0.02 | 97 | 1013.2 |
| 20260510010903 | 50 | 230 | 1.7 | 5.2 | 0.00 | 0.09 | 0.02 | 96 | 1013.2 |
| 20260510005403 | 50 | 230 | 3.5 | 9.6 | 0.01 | 0.09 | 0.02 | 96 | 1013.4 |
| 20260510004503 | 50 | 237 | 2.6 | 8.7 | 0.02 | 0.09 | 0.02 | 96 | 1013.3 |
| 20260510003603 | 50 | 225 | 1.7 | 7.0 | 0.02 | 0.09 | 0.02 | 96 | 1013.4 |
| 20260510002703 | 50 | 223 | 1.7 | 7.0 | 0.02 | 0.09 | 0.02 | 95 | 1013.4 |
| 20260510001803 | 50 | 231 | 0.9 | 7.0 | 0.02 | 0.09 | 0.02 | 95 | 1013.3 |
| 20260509235619 | 51 | 227 | 2.6 | 6.1 | 0.01 | 0.08 | 0.01 | 92 | 1013.2 |
| 20260509233603 | 52 | 197 | 3.5 | 8.7 | 0.00 | 0.07 | 0.00 | 86 | 1013.4 |
| 20260509232703 | 52 | 183 | 2.6 | 7.0 | 0.00 | 0.07 | 0.00 | 86 | 1013.0 |
| 20260509231803 | 52 | 188 | 2.6 | 5.2 | 0.00 | 0.07 | 0.00 | 87 | 1013.3 |
| 20260509230903 | 51 | 185 | 0.9 | 2.6 | 0.00 | 0.07 | 0.00 | 88 | 1013.2 |
| 20260509225403 | 51 | 195 | 0.0 | 1.7 | 0.00 | 0.07 | 0.00 | 88 | 1012.9 |
| 20260509224503 | 51 | 174 | 0.0 | 2.6 | 0.00 | 0.07 | 0.00 | 87 | 1013.1 |
| 20260509223603 | 51 | 140 | 0.0 | 2.6 | 0.00 | 0.07 | 0.00 | 88 | 1012.8 |
| 20260509222703 | 52 | 131 | 0.0 | 2.6 | 0.00 | 0.07 | 0.00 | 87 | 1012.7 |
| 20260509221803 | 52 | 180 | 0.0 | 1.7 | 0.00 | 0.07 | 0.00 | 85 | 1012.8 |
| 20260509220903 | 52 | 189 | 0.9 | 1.7 | 0.00 | 0.07 | 0.00 | 83 | 1012.6 |
| 20260509215403 | 53 | 171 | 1.7 | 6.1 | 0.00 | 0.07 | 0.07 | 82 | 1012.5 |
| 20260509214503 | 53 | 152 | 0.9 | 6.1 | 0.00 | 0.07 | 0.07 | 82 | 1012.4 |
| 20260509213603 | 54 | 142 | 0.9 | 7.0 | 0.00 | 0.07 | 0.07 | 83 | 1012.4 |
| 20260509212703 | 54 | 169 | 0.9 | 5.2 | 0.00 | 0.07 | 0.07 | 84 | 1012.4 |
| 20260509212017 | 54 | 181 | 1.7 | 5.2 | 0.00 | 0.07 | 0.07 | 84 | 1012.2 |